Location: The D'Auria's Ocala Star Observatory
(29.0276°N, 82.1742°W)
Time: 22:17:09
(UTC-04:00)

Okean 3 Rocket - Visible Passes

Search period start: 02 September 2014 00:00
Search period end: 12 September 2014 00:00
Orbit: 618 x 646 km, 82.5° (Epoch: 01 September)

Date Brightness Start Highest point End Pass type
(mag) Time Alt. Az. Time Alt. Az. Time Alt. Az.
02 Sep 4.5 20:53:46 10° NNW 20:58:09 50° W 21:02:29 10° SSW visible
03 Sep 6.1 21:15:51 10° NW 21:19:19 22° W 21:22:46 10° SW visible
05 Sep 4.0 20:19:40 10° N 20:24:10 71° W 20:28:36 10° S visible
06 Sep 5.7 20:41:27 10° NNW 20:45:22 30° W 20:49:16 10° SSW visible
07 Sep 6.8 21:04:19 10° WNW 21:06:29 13° W 21:08:38 10° WSW visible
09 Sep 5.2 20:07:11 10° NNW 20:11:24 41° W 20:15:35 10° SSW visible
10 Sep 6.7 20:29:29 10° NW 20:32:33 18° W 20:35:36 10° SW visible
